Hourly Weather Kisteni

Today, 29 July, Thursday

Time Temperature Precipitation Wind Pressure Humidity
00:00 +21°C° 0 mm 1 mps 745 mmHg 75%
01:00 +21°C° 0 mm 1 mps 744 mmHg 76%
02:00 +21°C° 0 mm 1 mps 744 mmHg 77%
03:00 +21°C° 0 mm 1 mps 744 mmHg 77%
04:00 +21°C° 0 mm 1 mps 744 mmHg 77%
05:00 +20°C° 0 mm 1 mps 744 mmHg 77%
06:00 +23°C° 0 mm 1 mps 744 mmHg 70%
07:00 +25°C° 0 mm 1 mps 744 mmHg 63%
08:00 +27°C° 0 mm 2 mps 744 mmHg 56%
09:00 +28°C° 0 mm 2 mps 743 mmHg 52%
10:00 +30°C° 0 mm 2 mps 743 mmHg 47%
11:00 +31°C° 0 mm 2 mps 743 mmHg 42%
12:00 +31°C° 0 mm 3 mps 743 mmHg 42%
13:00 +31°C° 0 mm 3 mps 742 mmHg 42%
14:00 +31°C° 0 mm 3 mps 742 mmHg 42%
15:00 +29°C° 0.7 mm 4 mps 742 mmHg 57%
16:00 +26°C° 0.7 mm 4 mps 741 mmHg 72%
17:00 +22°C° 0.7 mm 4 mps 741 mmHg 86%
18:00 +21°C° 1.2 mm 3 mps 742 mmHg 89%
19:00 +21°C° 1.2 mm 2 mps 742 mmHg 91%
20:00 +21°C° 1.2 mm 1 mps 742 mmHg 93%
21:00 +21°C° 0 mm 1 mps 743 mmHg 94%
22:00 +19°C° 0 mm 2 mps 743 mmHg 95%
23:00 +19°C° 0 mm 2 mps 743 mmHg 95%

Tomorrow, 30 July, Friday

Time Temperature Precipitation Wind Pressure Humidity
00:00 +19°C° 0 mm 2 mps 743 mmHg 96%
01:00 +18°C° 0 mm 2 mps 743 mmHg 96%
02:00 +18°C° 0 mm 2 mps 743 mmHg 96%
03:00 +18°C° 0 mm 2 mps 743 mmHg 96%
04:00 +17°C° 0 mm 2 mps 743 mmHg 95%
05:00 +17°C° 0 mm 3 mps 743 mmHg 94%
06:00 +19°C° 0 mm 3 mps 744 mmHg 88%
07:00 +20°C° 0 mm 3 mps 744 mmHg 81%
08:00 +22°C° 0 mm 3 mps 744 mmHg 74%
09:00 +24°C° 0 mm 3 mps 744 mmHg 64%
10:00 +26°C° 0 mm 3 mps 744 mmHg 53%
11:00 +28°C° 0 mm 4 mps 744 mmHg 43%
12:00 +28°C° 0 mm 4 mps 743 mmHg 42%
13:00 +28°C° 0 mm 5 mps 743 mmHg 41%
14:00 +28°C° 0 mm 5 mps 743 mmHg 40%
15:00 +28°C° 0 mm 5 mps 743 mmHg 41%
16:00 +28°C° 0 mm 5 mps 743 mmHg 42%
17:00 +27°C° 0 mm 5 mps 743 mmHg 44%
18:00 +26°C° 0 mm 4 mps 743 mmHg 49%
19:00 +24°C° 0 mm 3 mps 743 mmHg 54%
20:00 +23°C° 0 mm 2 mps 743 mmHg 59%
21:00 +21°C° 0 mm 2 mps 743 mmHg 61%
22:00 +20°C° 0 mm 2 mps 743 mmHg 64%
23:00 +19°C° 0 mm 2 mps 743 mmHg 66%

Day after tomorrow, 31 July, Saturday

Time Temperature Precipitation Wind Pressure Humidity
00:00 +18°C° 0 mm 2 mps 743 mmHg 69%
01:00 +18°C° 0 mm 2 mps 743 mmHg 72%
02:00 +17°C° 0 mm 2 mps 743 mmHg 75%
03:00 +17°C° 0 mm 2 mps 743 mmHg 77%
04:00 +17°C° 0 mm 2 mps 743 mmHg 79%
05:00 +17°C° 0 mm 2 mps 743 mmHg 80%
06:00 +19°C° 0 mm 3 mps 743 mmHg 72%
07:00 +21°C° 0 mm 3 mps 743 mmHg 64%
08:00 +23°C° 0 mm 4 mps 743 mmHg 56%
09:00 +26°C° 0 mm 4 mps 743 mmHg 51%
10:00 +27°C° 0 mm 5 mps 743 mmHg 45%
11:00 +28°C° 0 mm 5 mps 743 mmHg 39%
12:00 +29°C° 0 mm 5 mps 743 mmHg 38%
13:00 +30°C° 0 mm 5 mps 743 mmHg 36%
14:00 +30°C° 0 mm 5 mps 743 mmHg 34%
15:00 +30°C° 0 mm 4 mps 743 mmHg 35%
16:00 +30°C° 0 mm 4 mps 743 mmHg 36%
17:00 +30°C° 0 mm 3 mps 743 mmHg 38%
18:00 +28°C° 0 mm 2 mps 743 mmHg 44%
19:00 +26°C° 0 mm 2 mps 743 mmHg 50%
20:00 +24°C° 0 mm 1 mps 742 mmHg 57%
21:00 +23°C° 0 mm 2 mps 742 mmHg 58%
22:00 +21°C° 0 mm 2 mps 742 mmHg 60%
23:00 +21°C° 0 mm 3 mps 742 mmHg 62%

1 August, Sunday

Time Temperature Precipitation Wind Pressure Humidity
00:00 +20°C° 0.8 mm 2 mps 742 mmHg 72%
01:00 +19°C° 0.8 mm 2 mps 742 mmHg 82%
02:00 +19°C° 0.8 mm 2 mps 741 mmHg 91%
03:00 +19°C° 0.2 mm 2 mps 741 mmHg 93%
04:00 +19°C° 0.2 mm 3 mps 741 mmHg 94%
05:00 +19°C° 0.2 mm 3 mps 741 mmHg 95%
06:00 +20°C° 0.1 mm 3 mps 741 mmHg 90%
07:00 +21°C° 0.1 mm 4 mps 741 mmHg 86%
08:00 +22°C° 0.1 mm 4 mps 742 mmHg 82%
09:00 +23°C° 0 mm 4 mps 742 mmHg 73%
10:00 +26°C° 0 mm 4 mps 742 mmHg 64%
11:00 +27°C° 0 mm 4 mps 743 mmHg 56%
12:00 +28°C° 0 mm 4 mps 743 mmHg 51%
13:00 +29°C° 0 mm 4 mps 743 mmHg 47%
14:00 +30°C° 0 mm 4 mps 743 mmHg 42%
15:00 +30°C° 0 mm 4 mps 743 mmHg 42%
16:00 +30°C° 0 mm 4 mps 743 mmHg 41%
17:00 +30°C° 0 mm 3 mps 743 mmHg 41%
18:00 +27°C° 0 mm 3 mps 743 mmHg 47%
19:00 +25°C° 0 mm 2 mps 743 mmHg 53%
20:00 +23°C° 0 mm 1 mps 743 mmHg 59%
21:00 +23°C° 0 mm 1 mps 743 mmHg 61%
22:00 +22°C° 0 mm 1 mps 743 mmHg 63%
23:00 +21°C° 0 mm 1 mps 743 mmHg 65%

2 August, Monday

Time Temperature Precipitation Wind Pressure Humidity
00:00 +20°C° 0.1 mm 2 mps 742 mmHg 69%
01:00 +19°C° 0.1 mm 2 mps 742 mmHg 72%
02:00 +19°C° 0.1 mm 2 mps 742 mmHg 75%
03:00 +18°C° 0.3 mm 2 mps 741 mmHg 81%
04:00 +18°C° 0.3 mm 2 mps 741 mmHg 86%
05:00 +18°C° 0.3 mm 2 mps 740 mmHg 91%
06:00 +19°C° 0 mm 3 mps 740 mmHg 87%
07:00 +21°C° 0 mm 4 mps 740 mmHg 84%
08:00 +22°C° 0 mm 5 mps 740 mmHg 80%
09:00 +23°C° 0 mm 5 mps 740 mmHg 72%
10:00 +26°C° 0 mm 5 mps 740 mmHg 64%
11:00 +27°C° 0 mm 5 mps 740 mmHg 56%
12:00 +27°C° 0.1 mm 5 mps 740 mmHg 59%
13:00 +26°C° 0.1 mm 4 mps 740 mmHg 62%
14:00 +26°C° 0.1 mm 4 mps 740 mmHg 65%
15:00 +23°C° 0.4 mm 5 mps 740 mmHg 71%
16:00 +22°C° 0.4 mm 5 mps 741 mmHg 77%
17:00 +20°C° 0.4 mm 6 mps 741 mmHg 83%
18:00 +19°C° 0.1 mm 6 mps 741 mmHg 86%
19:00 +16°C° 0.1 mm 5 mps 742 mmHg 89%
20:00 +14°C° 0.1 mm 4 mps 742 mmHg 92%
21:00 +14°C° 0 mm 4 mps 743 mmHg 93%
22:00 +14°C° 0 mm 3 mps 743 mmHg 93%
23:00 +14°C° 0 mm 3 mps 744 mmHg 94%

3 August, Tuesday

Time Temperature Precipitation Wind Pressure Humidity
00:00 +14°C° 0 mm 3 mps 744 mmHg 95%
01:00 +13°C° 0 mm 3 mps 744 mmHg 95%
02:00 +13°C° 0 mm 4 mps 744 mmHg 95%
03:00 +13°C° 0 mm 3 mps 745 mmHg 95%
04:00 +12°C° 0 mm 3 mps 745 mmHg 95%
05:00 +12°C° 0 mm 3 mps 746 mmHg 94%
06:00 +14°C° 0 mm 4 mps 746 mmHg 86%
07:00 +15°C° 0 mm 4 mps 746 mmHg 77%
08:00 +17°C° 0 mm 5 mps 747 mmHg 69%
09:00 +20°C° 0 mm 5 mps 747 mmHg 60%
10:00 +21°C° 0 mm 5 mps 747 mmHg 51%
11:00 +23°C° 0 mm 5 mps 747 mmHg 42%
12:00 +25°C° 0 mm 5 mps 747 mmHg 42%
13:00 +25°C° 0 mm 5 mps 747 mmHg 41%
14:00 +26°C° 0 mm 5 mps 747 mmHg 40%
15:00 +25°C° 0 mm 4 mps 747 mmHg 44%
16:00 +25°C° 0 mm 3 mps 747 mmHg 47%
17:00 +24°C° 0 mm 3 mps 747 mmHg 51%
18:00 +21°C° 0.3 mm 3 mps 748 mmHg 60%
19:00 +20°C° 0.3 mm 3 mps 748 mmHg 70%
20:00 +18°C° 0.3 mm 3 mps 748 mmHg 79%
21:00 +17°C° 0.6 mm 2 mps 748 mmHg 84%
22:00 +16°C° 0.6 mm 2 mps 748 mmHg 89%
23:00 +15°C° 0.6 mm 2 mps 748 mmHg 93%
Show more